Location: Shepherdstown, WV
(39.4326°N, 77.8042°W)
Time: 00:39:23
(UTC-04:00)

Vanguard 2 - Visible Passes

Search period start: 31 July 2021 00:00
Search period end: 10 August 2021 00:00
Orbit: 552 x 2937 km, 32.9° (Epoch: 30 July)

Date Brightness Start Highest point End Pass type
(mag) Time Alt. Az. Time Alt. Az. Time Alt. Az.
01 Aug 9.2 04:21:47 11° SSE 04:22:10 11° SSE 04:23:13 10° SE visible
02 Aug 8.8 04:38:34 15° S 04:39:36 16° SSE 04:42:15 10° ESE visible
03 Aug 8.5 04:55:20 17° SSW 04:57:04 22° SSE 05:00:26 10° ESE visible
04 Aug 8.2 05:12:07 15° SW 05:14:36 27° SSE 05:18:22 10° ESE visible
05 Aug 7.9 05:28:52 11° SW 05:32:09 32° S 05:36:11 10° ESE visible
06 Aug 9.2 03:44:14 13° SE 03:44:14 13° SE 03:44:59 10° ESE visible
06 Aug 7.8 05:46:08 10° WSW 05:49:44 34° S 05:53:54 10° ESE visible
07 Aug 8.6 04:01:00 21° SE 04:01:00 21° SE 04:02:58 10° ESE visible
08 Aug 8.0 04:17:47 28° SSE 04:17:47 28° SSE 04:20:47 10° ESE visible
09 Aug 7.6 04:34:35 32° S 04:34:53 33° S 04:38:29 10° ESE visible
